{"data":{"norad_id":45228,"epoch":"2026-09-20T04:34:17.364864Z","epoch_age_seconds":41150,"freshness":"FRESH","line1":"1 45228U 20012BC  26263.19047876  .00034975  00000+0  36190-3 0  9996","line2":"2 45228  53.0486 120.5495 0003486 129.2790 230.8534 15.64406256365914","mean_motion":15.64406256,"eccentricity":0.0003486,"inclination_deg":53.0486,"raan_deg":120.5495,"arg_perigee_deg":129.279,"mean_anomaly_deg":230.8534,"bstar":0.0003619,"rev_number":36591,"period_min":92.047701450767,"perigee_km":372.59277352066,"apogee_km":377.30102361474,"semimajor_km":6753.0838985677,"source":"CELESTRAK","updated_at":"2026-09-20T09:00:38.228786Z"}}